Wolke Sonne

Wetter Ammerndorf

Gehe zu: Roßtal

Tageswerte vom Dienstag, 22.03.2022

Optionen

Tag:
Erweitert:

Alle Werte vom Dienstag, 22.03.2022

Einen Moment bitte, die Daten werden aufbereitet...

UhrzeitTemperaturBoden 10cmBoden 20cmFeuchteLuftdruckNiederschlagEvapotranspirationWindWindböenWindrichtungSolarstrahlungUV-IndexSonne?Uhrzeit
Diagramm IconDiagramm IconDiagramm IconDiagramm IconDiagramm IconDiagramm IconDiagramm IconDiagramm IconDiagramm IconDiagramm IconDiagramm IconDiagramm IconDiagramm Icon
00:00-1,9 °C 5,0 °C 5,6 °C 84 % 1035,8 hPa 0,0 mm - 0,0 km/h 0,0 km/h SSO 0,0 W/qm 0,0 nein 00:00
00:05-1,9 °C 5,0 °C 5,6 °C 84 % 1035,8 hPa 0,0 mm 0,0 mm 0,0 km/h 0,0 km/h SSO 0,0 W/qm 0,0 nein 00:05
00:10-2,0 °C 5,0 °C 5,6 °C 84 % 1035,9 hPa 0,0 mm 0,0 mm 0,0 km/h 0,0 km/h SSO 0,0 W/qm 0,0 nein 00:10
00:15-2,2 °C 5,0 °C 5,6 °C 84 % 1035,9 hPa 0,0 mm - 0,0 km/h 0,0 km/h SSO 0,0 W/qm 0,0 nein 00:15
00:20-2,2 °C 5,0 °C 5,6 °C 85 % 1036,0 hPa 0,0 mm - 0,0 km/h 0,0 km/h SSO 0,0 W/qm 0,0 nein 00:20
00:25-2,2 °C 5,0 °C 5,6 °C 85 % 1036,0 hPa 0,0 mm - 0,0 km/h 0,0 km/h SSO 0,0 W/qm 0,0 nein 00:25
00:30-2,3 °C 5,0 °C 5,6 °C 85 % 1035,9 hPa 0,0 mm - 0,0 km/h 0,0 km/h SSO 0,0 W/qm 0,0 nein 00:30
00:35-2,3 °C 5,0 °C 5,6 °C 85 % 1035,9 hPa 0,0 mm - 0,0 km/h 0,0 km/h SSO 0,0 W/qm 0,0 nein 00:35
00:40-2,4 °C 5,0 °C 5,6 °C 85 % 1036,0 hPa 0,0 mm - 0,0 km/h 0,0 km/h SSO 0,0 W/qm 0,0 nein 00:40
00:45-2,4 °C 4,4 °C 5,6 °C 86 % 1036,0 hPa 0,0 mm - 0,0 km/h 0,0 km/h SSO 0,0 W/qm 0,0 nein 00:45
00:50-2,5 °C 4,4 °C 5,6 °C 85 % 1036,0 hPa 0,0 mm - 0,0 km/h 0,0 km/h SSO 0,0 W/qm 0,0 nein 00:50
00:55-2,5 °C 4,4 °C 5,6 °C 86 % 1036,0 hPa 0,0 mm - 0,0 km/h 0,0 km/h SSO 0,0 W/qm 0,0 nein 00:55
01:00-2,7 °C 4,4 °C 5,6 °C 86 % 1036,1 hPa 0,0 mm - 0,0 km/h 0,0 km/h SSO 0,0 W/qm 0,0 nein 01:00
01:05-2,6 °C 4,4 °C 5,6 °C 86 % 1035,9 hPa 0,0 mm 0,0 mm 0,0 km/h 0,0 km/h SSO 0,0 W/qm 0,0 nein 01:05
01:10-2,6 °C 4,4 °C 5,6 °C 86 % 1035,9 hPa 0,0 mm 0,0 mm 0,0 km/h 0,0 km/h SSO 0,0 W/qm 0,0 nein 01:10
01:15-2,7 °C 4,4 °C 5,0 °C 86 % 1036,0 hPa 0,0 mm - 0,0 km/h 0,0 km/h SSO 0,0 W/qm 0,0 nein 01:15
01:20-2,8 °C 4,4 °C 5,0 °C 86 % 1036,1 hPa 0,0 mm - 0,0 km/h 0,0 km/h SSO 0,0 W/qm 0,0 nein 01:20
01:25-2,9 °C 4,4 °C 5,0 °C 86 % 1036,0 hPa 0,0 mm - 0,0 km/h 0,0 km/h SSO 0,0 W/qm 0,0 nein 01:25
01:30-2,9 °C 4,4 °C 5,0 °C 86 % 1036,0 hPa 0,0 mm - 0,0 km/h 0,0 km/h SSO 0,0 W/qm 0,0 nein 01:30
01:35-2,9 °C 4,4 °C 5,0 °C 87 % 1036,0 hPa 0,0 mm - 0,0 km/h 0,0 km/h SSO 0,0 W/qm 0,0 nein 01:35
01:40-2,9 °C 4,4 °C 5,0 °C 87 % 1036,1 hPa 0,0 mm - 0,0 km/h 0,0 km/h SSO 0,0 W/qm 0,0 nein 01:40
01:45-3,1 °C 4,4 °C 5,0 °C 87 % 1036,1 hPa 0,0 mm - 0,0 km/h 0,0 km/h SSO 0,0 W/qm 0,0 nein 01:45
01:50-3,2 °C 4,4 °C 5,0 °C 87 % 1036,1 hPa 0,0 mm - 0,0 km/h 0,0 km/h SSO 0,0 W/qm 0,0 nein 01:50
01:55-3,3 °C 4,4 °C 5,0 °C 87 % 1036,3 hPa 0,0 mm - 0,0 km/h 0,0 km/h SSO 0,0 W/qm 0,0 nein 01:55
UhrzeitTemperaturBoden 10cmBoden 20cmFeuchteLuftdruckNiederschlagEvapotranspirationWindWindböenWindrichtungSolarstrahlungUV-IndexSonne?Uhrzeit
02:00-3,3 °C 4,4 °C 5,0 °C 87 % 1036,3 hPa 0,0 mm - 0,0 km/h 0,0 km/h SSO 0,0 W/qm 0,0 nein 02:00
02:05-3,2 °C 4,4 °C 5,0 °C 87 % 1036,2 hPa 0,0 mm 0,0 mm 0,0 km/h 0,0 km/h SSO 0,0 W/qm 0,0 nein 02:05
02:10-3,3 °C 4,4 °C 5,0 °C 87 % 1036,3 hPa 0,0 mm 0,0 mm 0,0 km/h 0,0 km/h SSO 0,0 W/qm 0,0 nein 02:10
02:15-3,3 °C 4,4 °C 5,0 °C 87 % 1036,3 hPa 0,0 mm - 0,0 km/h 0,0 km/h SSO 0,0 W/qm 0,0 nein 02:15
02:20-3,4 °C 4,4 °C 5,0 °C 87 % 1036,2 hPa 0,0 mm - 0,0 km/h 0,0 km/h SSO 0,0 W/qm 0,0 nein 02:20
02:25-3,4 °C 4,4 °C 5,0 °C 87 % 1036,2 hPa 0,0 mm - 0,0 km/h 0,0 km/h SSO 0,0 W/qm 0,0 nein 02:25
02:30-3,5 °C 4,4 °C 5,0 °C 87 % 1036,1 hPa 0,0 mm - 0,0 km/h 0,0 km/h SSO 0,0 W/qm 0,0 nein 02:30
02:35-3,6 °C 4,4 °C 5,0 °C 87 % 1036,1 hPa 0,0 mm - 0,0 km/h 0,0 km/h SSO 0,0 W/qm 0,0 nein 02:35
02:40-3,6 °C 4,4 °C 5,0 °C 87 % 1036,1 hPa 0,0 mm - 0,0 km/h 0,0 km/h SSO 0,0 W/qm 0,0 nein 02:40
02:45-3,6 °C 4,4 °C 5,0 °C 88 % 1036,1 hPa 0,0 mm - 0,0 km/h 0,0 km/h SSO 0,0 W/qm 0,0 nein 02:45
02:50-3,7 °C 4,4 °C 5,0 °C 88 % 1036,1 hPa 0,0 mm - 0,0 km/h 0,0 km/h SSO 0,0 W/qm 0,0 nein 02:50
02:55-3,8 °C 4,4 °C 5,0 °C 88 % 1036,1 hPa 0,0 mm - 0,0 km/h 0,0 km/h SSO 0,0 W/qm 0,0 nein 02:55
03:00-3,8 °C 4,4 °C 5,0 °C 88 % 1036,0 hPa 0,0 mm - 0,0 km/h 0,0 km/h SSO 0,0 W/qm 0,0 nein 03:00
03:05-3,7 °C 4,4 °C 5,0 °C 89 % 1036,1 hPa 0,0 mm 0,0 mm 0,0 km/h 0,0 km/h SSO 0,0 W/qm 0,0 nein 03:05
03:10-3,8 °C 4,4 °C 5,0 °C 89 % 1036,0 hPa 0,0 mm 0,0 mm 0,0 km/h 0,0 km/h SSO 0,0 W/qm 0,0 nein 03:10
03:15-3,8 °C 4,4 °C 5,0 °C 88 % 1036,0 hPa 0,0 mm - 0,0 km/h 0,0 km/h SSO 0,0 W/qm 0,0 nein 03:15
03:20-3,8 °C 4,4 °C 5,0 °C 88 % 1035,9 hPa 0,0 mm - 0,0 km/h 0,0 km/h SSO 0,0 W/qm 0,0 nein 03:20
03:25-3,9 °C 4,4 °C 5,0 °C 88 % 1036,0 hPa 0,0 mm - 0,0 km/h 0,0 km/h SSO 0,0 W/qm 0,0 nein 03:25
03:30-3,9 °C 3,9 °C 5,0 °C 89 % 1036,0 hPa 0,0 mm - 0,0 km/h 0,0 km/h SSO 0,0 W/qm 0,0 nein 03:30
03:35-4,1 °C 3,9 °C 5,0 °C 88 % 1036,0 hPa 0,0 mm - 0,0 km/h 0,0 km/h SSO 0,0 W/qm 0,0 nein 03:35
03:40-4,1 °C 3,9 °C 5,0 °C 89 % 1036,0 hPa 0,0 mm - 0,0 km/h 0,0 km/h SSO 0,0 W/qm 0,0 nein 03:40
03:45-4,1 °C 3,9 °C 5,0 °C 89 % 1036,0 hPa 0,0 mm - 0,0 km/h 0,0 km/h SSO 0,0 W/qm 0,0 nein 03:45
03:50-4,2 °C 3,9 °C 5,0 °C 89 % 1036,0 hPa 0,0 mm - 0,0 km/h 0,0 km/h SSO 0,0 W/qm 0,0 nein 03:50
03:55-4,1 °C 3,9 °C 5,0 °C 89 % 1036,0 hPa 0,0 mm - 0,0 km/h 0,0 km/h SSO 0,0 W/qm 0,0 nein 03:55
UhrzeitTemperaturBoden 10cmBoden 20cmFeuchteLuftdruckNiederschlagEvapotranspirationWindWindböenWindrichtungSolarstrahlungUV-IndexSonne?Uhrzeit
04:00-4,2 °C 3,9 °C 5,0 °C 89 % 1036,0 hPa 0,0 mm - 0,0 km/h 0,0 km/h SSO 0,0 W/qm 0,0 nein 04:00
04:05-4,2 °C 3,9 °C 5,0 °C 89 % 1036,0 hPa 0,0 mm 0,0 mm 0,0 km/h 0,0 km/h SSO 0,0 W/qm 0,0 nein 04:05
04:10-4,2 °C 3,9 °C 5,0 °C 89 % 1035,9 hPa 0,0 mm 0,0 mm 0,0 km/h 0,0 km/h SSO 0,0 W/qm 0,0 nein 04:10
04:15-4,2 °C 3,9 °C 5,0 °C 89 % 1035,9 hPa 0,0 mm - 0,0 km/h 0,0 km/h SSO 0,0 W/qm 0,0 nein 04:15
04:20-4,2 °C 3,9 °C 5,0 °C 89 % 1036,0 hPa 0,0 mm - 0,0 km/h 0,0 km/h SSO 0,0 W/qm 0,0 nein 04:20
04:25-4,3 °C 3,9 °C 5,0 °C 89 % 1036,0 hPa 0,0 mm - 0,0 km/h 0,0 km/h SSO 0,0 W/qm 0,0 nein 04:25
04:30-4,2 °C 3,9 °C 5,0 °C 89 % 1036,0 hPa 0,0 mm - 0,0 km/h 0,0 km/h SSO 0,0 W/qm 0,0 nein 04:30
04:35-4,2 °C 3,9 °C 5,0 °C 89 % 1036,1 hPa 0,0 mm - 0,0 km/h 0,0 km/h SSO 0,0 W/qm 0,0 nein 04:35
04:40-4,4 °C 3,9 °C 5,0 °C 89 % 1036,1 hPa 0,0 mm - 0,0 km/h 0,0 km/h SSO 0,0 W/qm 0,0 nein 04:40
04:45-4,3 °C 3,9 °C 5,0 °C 89 % 1036,0 hPa 0,0 mm - 0,0 km/h 0,0 km/h SSO 0,0 W/qm 0,0 nein 04:45
04:50-4,4 °C 3,9 °C 5,0 °C 89 % 1036,0 hPa 0,0 mm - 0,0 km/h 0,0 km/h SSO 0,0 W/qm 0,0 nein 04:50
04:55-4,5 °C 3,9 °C 5,0 °C 89 % 1036,1 hPa 0,0 mm - 0,0 km/h 0,0 km/h SSO 0,0 W/qm 0,0 nein 04:55
05:00-4,5 °C 3,9 °C 5,0 °C 89 % 1036,1 hPa 0,0 mm - 0,0 km/h 0,0 km/h SSO 0,0 W/qm 0,0 nein 05:00
05:05-4,6 °C 3,9 °C 5,0 °C 89 % 1036,2 hPa 0,0 mm 0,0 mm 0,0 km/h 0,0 km/h SSO 0,0 W/qm 0,0 nein 05:05
05:10-4,6 °C 3,9 °C 5,0 °C 89 % 1036,3 hPa 0,0 mm 0,0 mm 0,0 km/h 0,0 km/h SSO 0,0 W/qm 0,0 nein 05:10
05:15-4,6 °C 3,9 °C 5,0 °C 90 % 1036,3 hPa 0,0 mm - 0,0 km/h 0,0 km/h SSO 0,0 W/qm 0,0 nein 05:15
05:20-4,6 °C 3,9 °C 5,0 °C 90 % 1036,2 hPa 0,0 mm - 0,0 km/h 0,0 km/h SSO 0,0 W/qm 0,0 nein 05:20
05:25-4,6 °C 3,9 °C 5,0 °C 89 % 1036,3 hPa 0,0 mm - 0,0 km/h 0,0 km/h SSO 0,0 W/qm 0,0 nein 05:25
05:30-4,7 °C 3,9 °C 5,0 °C 89 % 1036,4 hPa 0,0 mm - 0,0 km/h 0,0 km/h SSO 0,0 W/qm 0,0 nein 05:30
05:35-4,7 °C 3,9 °C 5,0 °C 90 % 1036,4 hPa 0,0 mm - 0,0 km/h 0,0 km/h SSO 0,0 W/qm 0,0 nein 05:35
05:40-4,7 °C 3,9 °C 5,0 °C 90 % 1036,4 hPa 0,0 mm - 0,0 km/h 0,0 km/h SSO 0,0 W/qm 0,0 nein 05:40
05:45-4,7 °C 3,9 °C 5,0 °C 90 % 1036,4 hPa 0,0 mm - 0,0 km/h 0,0 km/h SSO 0,0 W/qm 0,0 nein 05:45
05:50-4,8 °C 3,9 °C 5,0 °C 89 % 1036,4 hPa 0,0 mm - 0,0 km/h 0,0 km/h SSO 0,0 W/qm 0,0 nein 05:50
05:55-4,8 °C 3,9 °C 5,0 °C 90 % 1036,4 hPa 0,0 mm - 0,0 km/h 0,0 km/h SSO 0,0 W/qm 0,0 nein 05:55
UhrzeitTemperaturBoden 10cmBoden 20cmFeuchteLuftdruckNiederschlagEvapotranspirationWindWindböenWindrichtungSolarstrahlungUV-IndexSonne?Uhrzeit
06:00-4,9 °C 3,9 °C 5,0 °C 90 % 1036,4 hPa 0,0 mm - 0,0 km/h 0,0 km/h SSO 0,0 W/qm 0,0 nein 06:00
06:05-5,0 °C 3,9 °C 5,0 °C 90 % 1036,5 hPa 0,0 mm 0,0 mm 0,0 km/h 0,0 km/h SSO 0,0 W/qm 0,0 nein 06:05
06:10-4,9 °C 3,9 °C 5,0 °C 90 % 1036,5 hPa 0,0 mm 0,0 mm 0,0 km/h 0,0 km/h SSO 0,0 W/qm 0,0 nein 06:10
06:15-4,9 °C 3,9 °C 5,0 °C 90 % 1036,5 hPa 0,0 mm - 0,0 km/h 0,0 km/h SSO 5,0 W/qm 0,0 nein 06:15
06:20-5,0 °C 3,9 °C 5,0 °C 90 % 1036,5 hPa 0,0 mm - 0,0 km/h 0,0 km/h SSO 7,0 W/qm 0,0 nein 06:20
06:25-5,0 °C 3,9 °C 5,0 °C 90 % 1036,6 hPa 0,0 mm - 0,0 km/h 0,0 km/h SSO 11,0 W/qm 0,0 nein 06:25
06:30-4,9 °C 3,9 °C 5,0 °C 90 % 1036,6 hPa 0,0 mm - 0,0 km/h 0,0 km/h SSO 12,0 W/qm 0,0 nein 06:30
06:35-4,9 °C 3,9 °C 5,0 °C 90 % 1036,5 hPa 0,0 mm - 0,0 km/h 0,0 km/h SSO 14,0 W/qm 0,0 nein 06:35
06:40-4,9 °C 3,9 °C 5,0 °C 90 % 1036,6 hPa 0,0 mm - 0,0 km/h 0,0 km/h SSO 16,0 W/qm 0,0 nein 06:40
06:45-4,9 °C 3,3 °C 5,0 °C 90 % 1036,6 hPa 0,0 mm - 0,0 km/h 0,0 km/h SSO 18,0 W/qm 0,0 nein 06:45
06:50-4,8 °C 3,3 °C 5,0 °C 90 % 1036,6 hPa 0,0 mm - 0,0 km/h 0,0 km/h SSO 19,0 W/qm 0,0 nein 06:50
06:55-4,8 °C 3,3 °C 5,0 °C 90 % 1036,6 hPa 0,0 mm - 0,0 km/h 0,0 km/h SSO 21,0 W/qm 0,0 nein 06:55
07:00-4,8 °C 3,3 °C 4,4 °C 90 % 1036,6 hPa 0,0 mm - 0,0 km/h 0,0 km/h SSO 25,0 W/qm 0,0 nein 07:00
07:05-4,7 °C 3,3 °C 4,4 °C 90 % 1036,6 hPa 0,0 mm 0,0 mm 0,0 km/h 0,0 km/h SSO 26,0 W/qm 0,0 nein 07:05
07:10-4,6 °C 3,3 °C 4,4 °C 90 % 1036,6 hPa 0,0 mm 0,0 mm 0,0 km/h 0,0 km/h SSO 26,0 W/qm 0,0 nein 07:10
07:15-4,4 °C 3,3 °C 4,4 °C 90 % 1036,5 hPa 0,0 mm - 0,0 km/h 0,0 km/h SSO 28,0 W/qm 0,0 nein 07:15
07:20-4,3 °C 3,3 °C 4,4 °C 90 % 1036,6 hPa 0,0 mm - 0,0 km/h 0,0 km/h SSO 30,0 W/qm 0,0 nein 07:20
07:25-4,1 °C 3,3 °C 4,4 °C 90 % 1036,6 hPa 0,0 mm - 0,0 km/h 0,0 km/h SSO 39,0 W/qm 0,0 nein 07:25
07:30-4,0 °C 3,3 °C 4,4 °C 90 % 1036,7 hPa 0,0 mm - 0,0 km/h 0,0 km/h SSO 40,0 W/qm 0,0 nein 07:30
07:35-3,9 °C 3,3 °C 4,4 °C 90 % 1036,8 hPa 0,0 mm - 0,0 km/h 0,0 km/h SSO 42,0 W/qm 0,0 nein 07:35
07:40-3,7 °C 3,3 °C 4,4 °C 90 % 1036,7 hPa 0,0 mm - 0,0 km/h 0,0 km/h SSO 44,0 W/qm 0,0 nein 07:40
07:45-3,4 °C 3,3 °C 4,4 °C 90 % 1036,8 hPa 0,0 mm - 0,0 km/h 0,0 km/h SSO 46,0 W/qm 0,0 nein 07:45
07:50-3,2 °C 3,3 °C 4,4 °C 90 % 1036,8 hPa 0,0 mm - 0,0 km/h 0,0 km/h SSO 47,0 W/qm 0,0 nein 07:50
07:55-3,0 °C 3,3 °C 4,4 °C 90 % 1036,7 hPa 0,0 mm - 0,0 km/h 0,0 km/h SSO 47,0 W/qm 0,0 nein 07:55
UhrzeitTemperaturBoden 10cmBoden 20cmFeuchteLuftdruckNiederschlagEvapotranspirationWindWindböenWindrichtungSolarstrahlungUV-IndexSonne?Uhrzeit
08:00-2,8 °C 3,3 °C 4,4 °C 90 % 1036,7 hPa 0,0 mm - 0,0 km/h 0,0 km/h SSO 49,0 W/qm 0,0 nein 08:00
08:05-2,7 °C 3,3 °C 4,4 °C 90 % 1036,7 hPa 0,0 mm 0,0 mm 0,0 km/h 0,0 km/h SSO 51,0 W/qm 0,0 nein 08:05
08:10-2,3 °C 3,3 °C 4,4 °C 90 % 1036,6 hPa 0,0 mm 0,0 mm 0,0 km/h 0,0 km/h SSO 51,0 W/qm 0,0 nein 08:10
08:15-1,9 °C 3,3 °C 4,4 °C 90 % 1036,7 hPa 0,0 mm - 0,0 km/h 0,0 km/h SSO 221,0 W/qm 0,0 nein 08:15
08:20-1,6 °C 3,3 °C 4,4 °C 89 % 1036,6 hPa 0,0 mm - 0,0 km/h 0,0 km/h SSO 304,0 W/qm 0,5 ja 08:20
08:25-1,2 °C 3,3 °C 4,4 °C 89 % 1036,4 hPa 0,0 mm - 0,0 km/h 0,0 km/h SSO 302,0 W/qm 0,5 ja 08:25
08:30-0,7 °C 3,3 °C 4,4 °C 88 % 1036,5 hPa 0,0 mm - 0,0 km/h 0,0 km/h SSO 311,0 W/qm 0,5 ja 08:30
08:35-0,3 °C 3,3 °C 4,4 °C 87 % 1036,4 hPa 0,0 mm - 0,0 km/h 0,0 km/h SSO 327,0 W/qm 0,6 ja 08:35
08:400,2 °C 3,3 °C 4,4 °C 86 % 1036,2 hPa 0,0 mm - 0,0 km/h 0,0 km/h SSO 341,0 W/qm 0,6 ja 08:40
08:451,3 °C 3,3 °C 4,4 °C 83 % 1036,2 hPa 0,0 mm - 0,0 km/h 3,2 km/h SSO 364,0 W/qm 0,7 ja 08:45
08:502,2 °C 3,3 °C 4,4 °C 78 % 1035,9 hPa 0,0 mm - 0,0 km/h 3,2 km/h SSO 378,0 W/qm 0,7 ja 08:50
08:552,3 °C 3,3 °C 4,4 °C 78 % 1036,0 hPa 0,0 mm - 0,0 km/h 3,2 km/h SSO 394,0 W/qm 0,8 ja 08:55
09:002,5 °C 3,3 °C 4,4 °C 78 % 1036,0 hPa 0,0 mm - 0,0 km/h 3,2 km/h SSO 403,0 W/qm 0,8 ja 09:00
09:053,1 °C 3,3 °C 4,4 °C 75 % 1035,8 hPa 0,0 mm 0,1 mm 0,0 km/h 1,4 km/h SSO 417,0 W/qm 0,9 ja 09:05
09:104,2 °C 3,3 °C 4,4 °C 67 % 1035,6 hPa 0,0 mm 0,1 mm 1,4 km/h 1,4 km/h NO 431,0 W/qm 0,9 ja 09:10
09:154,8 °C 3,3 °C 4,4 °C 60 % 1035,7 hPa 0,0 mm - 3,2 km/h 6,5 km/h ONO 446,0 W/qm 1,0 ja 09:15
09:205,0 °C 3,3 °C 4,4 °C 59 % 1035,6 hPa 0,0 mm - 3,2 km/h 9,7 km/h ONO 459,0 W/qm 1,0 ja 09:20
09:255,4 °C 3,3 °C 4,4 °C 56 % 1035,5 hPa 0,0 mm - 3,2 km/h 9,7 km/h NNO 469,0 W/qm 1,1 ja 09:25
09:305,7 °C 3,3 °C 4,4 °C 54 % 1035,4 hPa 0,0 mm - 3,2 km/h 9,7 km/h SO 483,0 W/qm 1,1 ja 09:30
09:355,8 °C 3,3 °C 4,4 °C 54 % 1035,4 hPa 0,0 mm - 4,7 km/h 9,7 km/h O 492,0 W/qm 1,1 ja 09:35
09:406,1 °C 3,3 °C 4,4 °C 55 % 1035,3 hPa 0,0 mm - 6,5 km/h 13,0 km/h ONO 503,0 W/qm 1,2 ja 09:40
09:456,3 °C 3,3 °C 4,4 °C 54 % 1035,2 hPa 0,0 mm - 4,7 km/h 13,0 km/h NO 513,0 W/qm 1,2 ja 09:45
09:506,7 °C 3,3 °C 4,4 °C 52 % 1035,2 hPa 0,0 mm - 3,2 km/h 13,0 km/h SSO 527,0 W/qm 1,3 ja 09:50
09:556,8 °C 3,3 °C 4,4 °C 53 % 1035,2 hPa 0,0 mm - 4,7 km/h 11,2 km/h NO 536,0 W/qm 1,3 ja 09:55
UhrzeitTemperaturBoden 10cmBoden 20cmFeuchteLuftdruckNiederschlagEvapotranspirationWindWindböenWindrichtungSolarstrahlungUV-IndexSonne?Uhrzeit
10:007,3 °C 3,3 °C 4,4 °C 52 % 1035,0 hPa 0,0 mm - 4,7 km/h 11,2 km/h ONO 547,0 W/qm 1,4 ja 10:00
10:057,6 °C 3,3 °C 4,4 °C 50 % 1034,9 hPa 0,0 mm 0,3 mm 4,7 km/h 11,2 km/h O 557,0 W/qm 1,4 ja 10:05
10:107,6 °C 3,3 °C 4,4 °C 48 % 1034,8 hPa 0,0 mm 0,3 mm 4,7 km/h 11,2 km/h OSO 564,0 W/qm 1,4 ja 10:10
10:157,8 °C 3,3 °C 4,4 °C 46 % 1034,8 hPa 0,0 mm - 3,2 km/h 11,2 km/h S 573,0 W/qm 1,5 ja 10:15
10:208,7 °C 3,3 °C 4,4 °C 45 % 1034,7 hPa 0,0 mm - 3,2 km/h 11,2 km/h S 584,0 W/qm 1,5 ja 10:20
10:258,7 °C 3,3 °C 4,4 °C 46 % 1034,7 hPa 0,0 mm - 3,2 km/h 11,2 km/h O 591,0 W/qm 1,6 ja 10:25
10:309,2 °C 3,3 °C 4,4 °C 47 % 1034,5 hPa 0,0 mm - 1,4 km/h 9,7 km/h S 605,0 W/qm 1,6 ja 10:30
10:359,4 °C 3,3 °C 4,4 °C 43 % 1034,5 hPa 0,0 mm - 3,2 km/h 9,7 km/h O 610,0 W/qm 1,7 ja 10:35
10:409,2 °C 3,3 °C 4,4 °C 44 % 1034,5 hPa 0,0 mm - 4,7 km/h 9,7 km/h WNW 621,0 W/qm 1,7 ja 10:40
10:459,6 °C 3,3 °C 4,4 °C 43 % 1034,4 hPa 0,0 mm - 3,2 km/h 16,2 km/h SO 624,0 W/qm 1,8 ja 10:45
10:509,8 °C 3,3 °C 4,4 °C 41 % 1034,4 hPa 0,0 mm - 3,2 km/h 16,2 km/h O 631,0 W/qm 1,8 ja 10:50
10:559,8 °C 3,3 °C 4,4 °C 42 % 1034,3 hPa 0,0 mm - 3,2 km/h 16,2 km/h NO 638,0 W/qm 1,9 ja 10:55
11:0010,1 °C 3,3 °C 4,4 °C 44 % 1034,3 hPa 0,0 mm - 4,7 km/h 11,2 km/h NO 647,0 W/qm 1,9 ja 11:00
11:059,9 °C 3,9 °C 4,4 °C 40 % 1034,2 hPa 0,0 mm 0,6 mm 4,7 km/h 11,2 km/h OSO 654,0 W/qm 1,9 ja 11:05
11:1010,3 °C 3,9 °C 4,4 °C 40 % 1034,1 hPa 0,0 mm 0,6 mm 3,2 km/h 11,2 km/h W 656,0 W/qm 2,0 ja 11:10
11:1510,4 °C 3,9 °C 4,4 °C 41 % 1034,0 hPa 0,0 mm - 3,2 km/h 11,2 km/h S 663,0 W/qm 2,0 ja 11:15
11:2010,7 °C 3,9 °C 4,4 °C 38 % 1034,0 hPa 0,0 mm - 1,4 km/h 11,2 km/h ONO 666,0 W/qm 2,1 ja 11:20
11:2511,0 °C 3,9 °C 4,4 °C 45 % 1033,9 hPa 0,0 mm - 1,4 km/h 13,0 km/h SSW 671,0 W/qm 2,1 ja 11:25
11:3010,8 °C 3,9 °C 4,4 °C 41 % 1034,0 hPa 0,0 mm - 1,4 km/h 13,0 km/h ONO 675,0 W/qm 2,2 ja 11:30
11:3511,1 °C 3,9 °C 4,4 °C 39 % 1033,8 hPa 0,0 mm - 3,2 km/h 13,0 km/h NNO 682,0 W/qm 2,2 ja 11:35
11:4011,2 °C 3,9 °C 4,4 °C 37 % 1033,8 hPa 0,0 mm - 4,7 km/h 9,7 km/h SSO 686,0 W/qm 2,2 ja 11:40
11:4511,7 °C 3,9 °C 4,4 °C 39 % 1033,6 hPa 0,0 mm - 3,2 km/h 13,0 km/h ONO 687,0 W/qm 2,2 ja 11:45
11:5011,5 °C 3,9 °C 4,4 °C 37 % 1033,7 hPa 0,0 mm - 3,2 km/h 13,0 km/h NO 691,0 W/qm 2,2 ja 11:50
11:5511,8 °C 3,9 °C 4,4 °C 35 % 1033,6 hPa 0,0 mm - 1,4 km/h 13,0 km/h SSO 694,0 W/qm 2,2 ja 11:55
UhrzeitTemperaturBoden 10cmBoden 20cmFeuchteLuftdruckNiederschlagEvapotranspirationWindWindböenWindrichtungSolarstrahlungUV-IndexSonne?Uhrzeit
12:0011,6 °C 3,9 °C 4,4 °C 36 % 1033,5 hPa 0,0 mm - 1,4 km/h 11,2 km/h ONO 694,0 W/qm 2,2 ja 12:00
12:0512,4 °C 3,9 °C 4,4 °C 34 % 1033,3 hPa 0,0 mm 0,9 mm 3,2 km/h 13,0 km/h SSW 698,0 W/qm 2,3 ja 12:05
12:1012,4 °C 3,9 °C 4,4 °C 35 % 1033,2 hPa 0,0 mm 0,9 mm 3,2 km/h 13,0 km/h SSO 701,0 W/qm 2,3 ja 12:10
12:1512,9 °C 3,9 °C 4,4 °C 35 % 1033,3 hPa 0,0 mm - 3,2 km/h 7,9 km/h ONO 701,0 W/qm 2,3 ja 12:15
12:2013,1 °C 4,4 °C 4,4 °C 33 % 1033,1 hPa 0,0 mm - 4,7 km/h 11,2 km/h SO 703,0 W/qm 2,3 ja 12:20
12:2512,8 °C 4,4 °C 4,4 °C 33 % 1033,1 hPa 0,0 mm - 4,7 km/h 11,2 km/h SO 703,0 W/qm 2,3 ja 12:25
12:3013,1 °C 4,4 °C 4,4 °C 33 % 1032,9 hPa 0,0 mm - 4,7 km/h 14,4 km/h S 705,0 W/qm 2,3 ja 12:30
12:3513,4 °C 4,4 °C 4,4 °C 33 % 1032,9 hPa 0,0 mm - 3,2 km/h 14,4 km/h NO 705,0 W/qm 2,3 ja 12:35
12:4013,3 °C 4,4 °C 4,4 °C 31 % 1032,8 hPa 0,0 mm - 3,2 km/h 14,4 km/h SSW 707,0 W/qm 2,3 ja 12:40
12:4513,6 °C 4,4 °C 4,4 °C 29 % 1032,7 hPa 0,0 mm - 4,7 km/h 11,2 km/h S 705,0 W/qm 2,3 ja 12:45
12:5013,7 °C 4,4 °C 4,4 °C 28 % 1032,6 hPa 0,0 mm - 4,7 km/h 13,0 km/h SO 703,0 W/qm 2,3 ja 12:50
12:5514,3 °C 4,4 °C 4,4 °C 32 % 1032,4 hPa 0,0 mm - 4,7 km/h 13,0 km/h NNO 703,0 W/qm 2,3 ja 12:55
13:0013,9 °C 4,4 °C 4,4 °C 30 % 1032,4 hPa 0,0 mm - 4,7 km/h 14,4 km/h W 700,0 W/qm 2,2 ja 13:00
13:0514,1 °C 4,4 °C 4,4 °C 25 % 1032,5 hPa 0,0 mm 1,3 mm 4,7 km/h 14,4 km/h ONO 694,0 W/qm 2,2 ja 13:05
13:1014,3 °C 4,4 °C 4,4 °C 27 % 1032,4 hPa 0,0 mm 1,3 mm 3,2 km/h 14,4 km/h SSO 694,0 W/qm 2,2 ja 13:10
13:1514,4 °C 5,0 °C 4,4 °C 25 % 1032,2 hPa 0,0 mm - 4,7 km/h 11,2 km/h SSO 691,0 W/qm 2,2 ja 13:15
13:2014,4 °C 5,0 °C 4,4 °C 25 % 1032,2 hPa 0,0 mm - 6,5 km/h 16,2 km/h SO 689,0 W/qm 2,2 ja 13:20
13:2514,4 °C 5,0 °C 4,4 °C 25 % 1032,1 hPa 0,0 mm - 4,7 km/h 16,2 km/h SW 682,0 W/qm 2,2 ja 13:25
13:3014,7 °C 5,0 °C 4,4 °C 25 % 1032,1 hPa 0,0 mm - 3,2 km/h 16,2 km/h S 677,0 W/qm 2,1 ja 13:30
13:3514,6 °C 5,0 °C 4,4 °C 25 % 1032,1 hPa 0,0 mm - 4,7 km/h 11,2 km/h SSO 677,0 W/qm 2,1 ja 13:35
13:4014,7 °C 5,0 °C 4,4 °C 25 % 1032,0 hPa 0,0 mm - 4,7 km/h 13,0 km/h S 673,0 W/qm 2,1 ja 13:40
13:4514,7 °C 5,0 °C 4,4 °C 26 % 1032,0 hPa 0,0 mm - 3,2 km/h 14,4 km/h OSO 664,0 W/qm 2,0 ja 13:45
13:5014,9 °C 5,0 °C 4,4 °C 25 % 1032,0 hPa 0,0 mm - 1,4 km/h 14,4 km/h S 656,0 W/qm 2,0 ja 13:50
13:5515,1 °C 5,0 °C 5,0 °C 24 % 1031,8 hPa 0,0 mm - 3,2 km/h 14,4 km/h SO 652,0 W/qm 2,0 ja 13:55
UhrzeitTemperaturBoden 10cmBoden 20cmFeuchteLuftdruckNiederschlagEvapotranspirationWindWindböenWindrichtungSolarstrahlungUV-IndexSonne?Uhrzeit
14:0014,7 °C 5,6 °C 5,0 °C 24 % 1031,8 hPa 0,0 mm - 3,2 km/h 11,2 km/h O 647,0 W/qm 1,9 ja 14:00
14:0515,0 °C 5,6 °C 5,0 °C 23 % 1031,6 hPa 0,0 mm 1,7 mm 3,2 km/h 11,2 km/h SSW 642,0 W/qm 1,9 ja 14:05
14:1015,1 °C 5,6 °C 5,0 °C 22 % 1031,7 hPa 0,0 mm 1,7 mm 3,2 km/h 11,2 km/h SSO 635,0 W/qm 1,9 ja 14:10
14:1514,8 °C 5,6 °C 5,0 °C 23 % 1031,7 hPa 0,0 mm - 3,2 km/h 9,7 km/h NO 626,0 W/qm 1,8 ja 14:15
14:2014,8 °C 5,6 °C 5,0 °C 26 % 1031,6 hPa 0,0 mm - 3,2 km/h 9,7 km/h ONO 615,0 W/qm 1,8 ja 14:20
14:2515,4 °C 5,6 °C 5,0 °C 23 % 1031,5 hPa 0,0 mm - 3,2 km/h 11,2 km/h S 610,0 W/qm 1,7 ja 14:25
14:3015,4 °C 5,6 °C 5,0 °C 22 % 1031,5 hPa 0,0 mm - 3,2 km/h 11,2 km/h SO 598,0 W/qm 1,7 ja 14:30
14:3515,3 °C 5,6 °C 5,0 °C 22 % 1031,4 hPa 0,0 mm - 3,2 km/h 11,2 km/h SSW 592,0 W/qm 1,6 ja 14:35
14:4015,1 °C 5,6 °C 5,0 °C 24 % 1031,4 hPa 0,0 mm - 1,4 km/h 11,2 km/h SSO 584,0 W/qm 1,6 ja 14:40
14:4515,3 °C 5,6 °C 5,0 °C 24 % 1031,3 hPa 0,0 mm - 1,4 km/h 11,2 km/h ONO 575,0 W/qm 1,6 ja 14:45
14:5015,3 °C 6,1 °C 5,0 °C 25 % 1031,3 hPa 0,0 mm - 3,2 km/h 11,2 km/h WSW 563,0 W/qm 1,5 ja 14:50
14:5515,3 °C 6,1 °C 5,0 °C 22 % 1031,3 hPa 0,0 mm - 4,7 km/h 11,2 km/h SSO 554,0 W/qm 1,4 ja 14:55
15:0015,5 °C 6,1 °C 5,0 °C 23 % 1031,2 hPa 0,0 mm - 3,2 km/h 13,0 km/h NO 545,0 W/qm 1,4 ja 15:00
15:0515,6 °C 6,1 °C 5,0 °C 24 % 1031,1 hPa 0,0 mm 2,0 mm 3,2 km/h 13,0 km/h SSO 533,0 W/qm 1,3 ja 15:05
15:1015,9 °C 6,1 °C 5,0 °C 22 % 1031,1 hPa 0,0 mm 2,0 mm 1,4 km/h 13,0 km/h S 522,0 W/qm 1,3 ja 15:10
15:1515,9 °C 6,1 °C 5,0 °C 21 % 1031,0 hPa 0,0 mm - 3,2 km/h 11,2 km/h SSO 512,0 W/qm 1,3 ja 15:15
15:2015,9 °C 6,1 °C 5,0 °C 21 % 1031,1 hPa 0,0 mm - 4,7 km/h 9,7 km/h SO 504,0 W/qm 1,2 ja 15:20
15:2515,7 °C 6,1 °C 5,0 °C 21 % 1031,0 hPa 0,0 mm - 3,2 km/h 14,4 km/h S 489,0 W/qm 1,2 ja 15:25
15:3015,6 °C 6,1 °C 5,0 °C 22 % 1030,9 hPa 0,0 mm - 3,2 km/h 14,4 km/h NO 478,0 W/qm 1,1 ja 15:30
15:3515,5 °C 6,1 °C 5,0 °C 21 % 1031,0 hPa 0,0 mm - 3,2 km/h 14,4 km/h S 466,0 W/qm 1,1 ja 15:35
15:4015,3 °C 6,1 °C 5,0 °C 24 % 1031,0 hPa 0,0 mm - 3,2 km/h 11,2 km/h ONO 452,0 W/qm 1,0 ja 15:40
15:4515,2 °C 6,1 °C 5,0 °C 22 % 1031,0 hPa 0,0 mm - 3,2 km/h 11,2 km/h N 441,0 W/qm 1,0 ja 15:45
15:5015,3 °C 6,1 °C 5,0 °C 22 % 1030,9 hPa 0,0 mm - 3,2 km/h 11,2 km/h O 427,0 W/qm 0,9 ja 15:50
15:5515,8 °C 6,1 °C 5,0 °C 21 % 1030,7 hPa 0,0 mm - 3,2 km/h 11,2 km/h SO 417,0 W/qm 0,9 ja 15:55
UhrzeitTemperaturBoden 10cmBoden 20cmFeuchteLuftdruckNiederschlagEvapotranspirationWindWindböenWindrichtungSolarstrahlungUV-IndexSonne?Uhrzeit
16:0015,9 °C 6,1 °C 5,0 °C 22 % 1030,7 hPa 0,0 mm - 4,7 km/h 11,2 km/h SSW 404,0 W/qm 0,8 ja 16:00
16:0516,0 °C 6,1 °C 5,0 °C 21 % 1030,6 hPa 0,0 mm 2,3 mm 4,7 km/h 16,2 km/h S 392,0 W/qm 0,8 ja 16:05
16:1015,9 °C 6,1 °C 5,0 °C 21 % 1030,6 hPa 0,0 mm 2,3 mm 3,2 km/h 16,2 km/h SSO 378,0 W/qm 0,7 ja 16:10
16:1515,8 °C 6,1 °C 5,0 °C 24 % 1030,6 hPa 0,0 mm - 1,4 km/h 11,2 km/h SSW 364,0 W/qm 0,7 ja 16:15
16:2015,4 °C 6,1 °C 5,0 °C 21 % 1030,6 hPa 0,0 mm - 1,4 km/h 11,2 km/h NO 350,0 W/qm 0,7 ja 16:20
16:2515,2 °C 6,1 °C 5,0 °C 22 % 1030,5 hPa 0,0 mm - 1,4 km/h 6,5 km/h SSW 338,0 W/qm 0,6 ja 16:25
16:3015,7 °C 6,1 °C 5,0 °C 20 % 1030,4 hPa 0,0 mm - 3,2 km/h 7,9 km/h S 322,0 W/qm 0,6 ja 16:30
16:3515,7 °C 6,1 °C 5,0 °C 21 % 1030,3 hPa 0,0 mm - 1,4 km/h 7,9 km/h SSW 306,0 W/qm 0,5 ja 16:35
16:4015,8 °C 6,1 °C 5,0 °C 20 % 1030,4 hPa 0,0 mm - 1,4 km/h 7,9 km/h OSO 290,0 W/qm 0,5 ja 16:40
16:4515,8 °C 6,1 °C 5,6 °C 21 % 1030,3 hPa 0,0 mm - 1,4 km/h 9,7 km/h SSW 272,0 W/qm 0,5 ja 16:45
16:5015,8 °C 6,1 °C 5,6 °C 20 % 1030,3 hPa 0,0 mm - 1,4 km/h 9,7 km/h S 255,0 W/qm 0,0 nein 16:50
16:5515,2 °C 6,1 °C 5,6 °C 23 % 1030,4 hPa 0,0 mm - 3,2 km/h 9,7 km/h NO 236,0 W/qm 0,0 nein 16:55
17:0014,7 °C 6,1 °C 5,6 °C 24 % 1030,4 hPa 0,0 mm - 3,2 km/h 7,9 km/h ONO 220,0 W/qm 0,0 nein 17:00
17:0515,0 °C 6,1 °C 5,6 °C 21 % 1030,4 hPa 0,0 mm 2,5 mm 1,4 km/h 7,9 km/h OSO 202,0 W/qm 0,0 nein 17:05
17:1014,9 °C 6,1 °C 5,6 °C 21 % 1030,4 hPa 0,0 mm 2,5 mm 1,4 km/h 7,9 km/h O 183,0 W/qm 0,0 nein 17:10
17:1515,1 °C 6,1 °C 5,6 °C 22 % 1030,4 hPa 0,0 mm - 1,4 km/h 7,9 km/h SO 165,0 W/qm 0,0 nein 17:15
17:2015,0 °C 6,1 °C 5,6 °C 23 % 1030,3 hPa 0,0 mm - 0,0 km/h 7,9 km/h NNO 121,0 W/qm 0,0 nein 17:20
17:2514,9 °C 6,1 °C 5,6 °C 24 % 1030,3 hPa 0,0 mm - 0,0 km/h 4,7 km/h S 56,0 W/qm 0,0 nein 17:25
17:3014,9 °C 6,1 °C 5,6 °C 23 % 1030,3 hPa 0,0 mm - 1,4 km/h 4,7 km/h SSO 35,0 W/qm 0,0 nein 17:30
17:3514,8 °C 6,1 °C 5,6 °C 24 % 1030,3 hPa 0,0 mm - 1,4 km/h 6,5 km/h SSO 37,0 W/qm 0,0 nein 17:35
17:4014,2 °C 6,1 °C 5,6 °C 24 % 1030,4 hPa 0,0 mm - 0,0 km/h 6,5 km/h SSW 32,0 W/qm 0,0 nein 17:40
17:4513,6 °C 6,1 °C 5,6 °C 27 % 1030,5 hPa 0,0 mm - 0,0 km/h 4,7 km/h SSW 28,0 W/qm 0,0 nein 17:45
17:5012,9 °C 6,1 °C 5,6 °C 31 % 1030,6 hPa 0,0 mm - 0,0 km/h 4,7 km/h SSW 25,0 W/qm 0,0 nein 17:50
17:5512,0 °C 6,1 °C 5,6 °C 31 % 1030,7 hPa 0,0 mm - 0,0 km/h 4,7 km/h SSW 23,0 W/qm 0,0 nein 17:55
UhrzeitTemperaturBoden 10cmBoden 20cmFeuchteLuftdruckNiederschlagEvapotranspirationWindWindböenWindrichtungSolarstrahlungUV-IndexSonne?Uhrzeit
18:0011,3 °C 6,1 °C 5,6 °C 35 % 1030,8 hPa 0,0 mm - 0,0 km/h 1,4 km/h SSW 21,0 W/qm 0,0 nein 18:00
18:0510,7 °C 6,1 °C 5,6 °C 36 % 1030,9 hPa 0,0 mm 2,6 mm 0,0 km/h 0,0 km/h SSW 19,0 W/qm 0,0 nein 18:05
18:1010,2 °C 6,1 °C 5,6 °C 39 % 1030,9 hPa 0,0 mm 2,6 mm 0,0 km/h 0,0 km/h SSW 18,0 W/qm 0,0 nein 18:10
18:159,9 °C 6,1 °C 5,6 °C 37 % 1031,1 hPa 0,0 mm - 0,0 km/h 0,0 km/h SSW 14,0 W/qm 0,0 nein 18:15
18:209,7 °C 6,1 °C 5,6 °C 37 % 1031,1 hPa 0,0 mm - 0,0 km/h 0,0 km/h SSW 12,0 W/qm 0,0 nein 18:20
18:259,6 °C 6,1 °C 5,6 °C 37 % 1031,1 hPa 0,0 mm - 0,0 km/h 0,0 km/h SSW 11,0 W/qm 0,0 nein 18:25
18:309,2 °C 6,1 °C 5,6 °C 42 % 1031,2 hPa 0,0 mm - 0,0 km/h 0,0 km/h SSW 7,0 W/qm 0,0 nein 18:30
18:358,5 °C 6,1 °C 5,6 °C 46 % 1031,4 hPa 0,0 mm - 0,0 km/h 0,0 km/h SSW 5,0 W/qm 0,0 nein 18:35
18:408,2 °C 6,1 °C 5,6 °C 44 % 1031,4 hPa 0,0 mm - 0,0 km/h 0,0 km/h SSW 0,0 W/qm 0,0 nein 18:40
18:457,7 °C 6,1 °C 5,6 °C 48 % 1031,5 hPa 0,0 mm - 0,0 km/h 0,0 km/h SSW 0,0 W/qm 0,0 nein 18:45
18:507,2 °C 6,1 °C 5,6 °C 51 % 1031,6 hPa 0,0 mm - 0,0 km/h 0,0 km/h SSW 0,0 W/qm 0,0 nein 18:50
19:006,9 °C 6,1 °C 5,6 °C 50 % 1031,7 hPa 0,0 mm - 0,0 km/h 0,0 km/h SSW 0,0 W/qm 0,0 nein 19:00
19:056,6 °C 6,1 °C 5,6 °C 52 % 1031,9 hPa 0,0 mm 2,6 mm 0,0 km/h 0,0 km/h SSW 0,0 W/qm 0,0 nein 19:05
19:106,2 °C 6,1 °C 5,6 °C 54 % 1031,9 hPa 0,0 mm 2,6 mm 0,0 km/h 0,0 km/h SSW 0,0 W/qm 0,0 nein 19:10
19:156,0 °C 6,1 °C 5,6 °C 52 % 1031,9 hPa 0,0 mm - 0,0 km/h 0,0 km/h SSW 0,0 W/qm 0,0 nein 19:15
19:205,6 °C 6,1 °C 5,6 °C 55 % 1032,0 hPa 0,0 mm - 0,0 km/h 0,0 km/h SSW 0,0 W/qm 0,0 nein 19:20
19:255,1 °C 6,1 °C 5,6 °C 58 % 1032,2 hPa 0,0 mm - 0,0 km/h 0,0 km/h SSW 0,0 W/qm 0,0 nein 19:25
19:304,9 °C 6,1 °C 5,6 °C 58 % 1032,3 hPa 0,0 mm - 0,0 km/h 0,0 km/h SSW 0,0 W/qm 0,0 nein 19:30
19:354,7 °C 6,1 °C 5,6 °C 59 % 1032,3 hPa 0,0 mm - 0,0 km/h 0,0 km/h SSW 0,0 W/qm 0,0 nein 19:35
19:404,5 °C 6,1 °C 5,6 °C 59 % 1032,5 hPa 0,0 mm - 0,0 km/h 0,0 km/h SSW 0,0 W/qm 0,0 nein 19:40
19:454,1 °C 6,1 °C 5,6 °C 61 % 1032,5 hPa 0,0 mm - 0,0 km/h 0,0 km/h SSW 0,0 W/qm 0,0 nein 19:45
19:503,9 °C 6,1 °C 5,6 °C 62 % 1032,5 hPa 0,0 mm - 0,0 km/h 0,0 km/h SSW 0,0 W/qm 0,0 nein 19:50
19:553,6 °C 6,1 °C 5,6 °C 63 % 1032,6 hPa 0,0 mm - 0,0 km/h 0,0 km/h SSW 0,0 W/qm 0,0 nein 19:55
20:003,4 °C 6,1 °C 5,6 °C 63 % 1032,6 hPa 0,0 mm - 0,0 km/h 0,0 km/h SSW 0,0 W/qm 0,0 nein 20:00
UhrzeitTemperaturBoden 10cmBoden 20cmFeuchteLuftdruckNiederschlagEvapotranspirationWindWindböenWindrichtungSolarstrahlungUV-IndexSonne?Uhrzeit
20:053,3 °C 6,1 °C 5,6 °C 63 % 1032,8 hPa 0,0 mm 2,6 mm 0,0 km/h 0,0 km/h SSW 0,0 W/qm 0,0 nein 20:05
20:103,1 °C 6,1 °C 5,6 °C 64 % 1032,8 hPa 0,0 mm 2,6 mm 0,0 km/h 0,0 km/h SSW 0,0 W/qm 0,0 nein 20:10
20:152,8 °C 5,6 °C 5,6 °C 65 % 1032,8 hPa 0,0 mm - 0,0 km/h 0,0 km/h SSW 0,0 W/qm 0,0 nein 20:15
20:202,6 °C 5,6 °C 5,6 °C 66 % 1032,9 hPa 0,0 mm - 0,0 km/h 0,0 km/h SSW 0,0 W/qm 0,0 nein 20:20
20:252,4 °C 5,6 °C 5,6 °C 67 % 1032,9 hPa 0,0 mm - 0,0 km/h 0,0 km/h SSW 0,0 W/qm 0,0 nein 20:25
20:302,4 °C 5,6 °C 5,6 °C 67 % 1033,0 hPa 0,0 mm - 0,0 km/h 0,0 km/h SSW 0,0 W/qm 0,0 nein 20:30
20:352,3 °C 5,6 °C 5,6 °C 68 % 1033,0 hPa 0,0 mm - 0,0 km/h 0,0 km/h SSW 0,0 W/qm 0,0 nein 20:35
20:402,2 °C 5,6 °C 5,6 °C 68 % 1033,0 hPa 0,0 mm - 0,0 km/h 0,0 km/h SSW 0,0 W/qm 0,0 nein 20:40
20:451,9 °C 5,6 °C 5,6 °C 68 % 1033,1 hPa 0,0 mm - 0,0 km/h 0,0 km/h SSW 0,0 W/qm 0,0 nein 20:45
20:501,9 °C 5,6 °C 5,6 °C 69 % 1033,1 hPa 0,0 mm - 0,0 km/h 0,0 km/h SSW 0,0 W/qm 0,0 nein 20:50
20:551,7 °C 5,6 °C 5,6 °C 69 % 1033,2 hPa 0,0 mm - 0,0 km/h 0,0 km/h SSW 0,0 W/qm 0,0 nein 20:55
21:001,6 °C 5,6 °C 5,6 °C 70 % 1033,2 hPa 0,0 mm - 0,0 km/h 0,0 km/h SSW 0,0 W/qm 0,0 nein 21:00
21:051,6 °C 5,6 °C 5,6 °C 70 % 1033,2 hPa 0,0 mm 2,6 mm 0,0 km/h 0,0 km/h SSW 0,0 W/qm 0,0 nein 21:05
21:101,4 °C 5,6 °C 5,6 °C 70 % 1033,2 hPa 0,0 mm 2,6 mm 0,0 km/h 0,0 km/h SSW 0,0 W/qm 0,0 nein 21:10
21:151,2 °C 5,6 °C 5,6 °C 70 % 1033,3 hPa 0,0 mm - 0,0 km/h 0,0 km/h SSW 0,0 W/qm 0,0 nein 21:15
21:201,1 °C 5,6 °C 5,6 °C 71 % 1033,3 hPa 0,0 mm - 0,0 km/h 0,0 km/h SSW 0,0 W/qm 0,0 nein 21:20
21:250,9 °C 5,6 °C 5,6 °C 71 % 1033,3 hPa 0,0 mm - 0,0 km/h 0,0 km/h SSW 0,0 W/qm 0,0 nein 21:25
21:300,7 °C 5,6 °C 5,6 °C 72 % 1033,4 hPa 0,0 mm - 0,0 km/h 0,0 km/h SSW 0,0 W/qm 0,0 nein 21:30
21:350,7 °C 5,6 °C 5,6 °C 72 % 1033,4 hPa 0,0 mm - 0,0 km/h 0,0 km/h SSW 0,0 W/qm 0,0 nein 21:35
21:400,6 °C 5,6 °C 5,6 °C 72 % 1033,4 hPa 0,0 mm - 0,0 km/h 0,0 km/h SSW 0,0 W/qm 0,0 nein 21:40
21:450,4 °C 5,6 °C 5,6 °C 73 % 1033,4 hPa 0,0 mm - 0,0 km/h 0,0 km/h SSW 0,0 W/qm 0,0 nein 21:45
21:500,3 °C 5,6 °C 5,6 °C 74 % 1033,4 hPa 0,0 mm - 0,0 km/h 0,0 km/h SSW 0,0 W/qm 0,0 nein 21:50
21:550,3 °C 5,6 °C 5,6 °C 74 % 1033,4 hPa 0,0 mm - 0,0 km/h 0,0 km/h SSW 0,0 W/qm 0,0 nein 21:55
22:000,3 °C 5,6 °C 5,6 °C 74 % 1033,4 hPa 0,0 mm - 0,0 km/h 0,0 km/h SSW 0,0 W/qm 0,0 nein 22:00
UhrzeitTemperaturBoden 10cmBoden 20cmFeuchteLuftdruckNiederschlagEvapotranspirationWindWindböenWindrichtungSolarstrahlungUV-IndexSonne?Uhrzeit
22:050,1 °C 5,6 °C 5,6 °C 75 % 1033,4 hPa 0,0 mm 2,6 mm 0,0 km/h 0,0 km/h SSW 0,0 W/qm 0,0 nein 22:05
22:100,1 °C 5,6 °C 5,6 °C 74 % 1033,4 hPa 0,0 mm 2,6 mm 0,0 km/h 0,0 km/h SSW 0,0 W/qm 0,0 nein 22:10
22:150,0 °C 5,6 °C 5,6 °C 75 % 1033,5 hPa 0,0 mm - 0,0 km/h 0,0 km/h SSW 0,0 W/qm 0,0 nein 22:15
22:20-0,2 °C 5,6 °C 5,6 °C 76 % 1033,5 hPa 0,0 mm - 0,0 km/h 0,0 km/h SSW 0,0 W/qm 0,0 nein 22:20
22:25-0,2 °C 5,6 °C 5,6 °C 76 % 1033,5 hPa 0,0 mm - 0,0 km/h 0,0 km/h SSW 0,0 W/qm 0,0 nein 22:25
22:30-0,3 °C 5,6 °C 5,6 °C 77 % 1033,6 hPa 0,0 mm - 0,0 km/h 0,0 km/h SSW 0,0 W/qm 0,0 nein 22:30
22:35-0,4 °C 5,0 °C 5,6 °C 77 % 1033,6 hPa 0,0 mm - 0,0 km/h 0,0 km/h SSW 0,0 W/qm 0,0 nein 22:35
22:40-0,4 °C 5,0 °C 5,6 °C 77 % 1033,5 hPa 0,0 mm - 0,0 km/h 0,0 km/h SSW 0,0 W/qm 0,0 nein 22:40
22:45-0,4 °C 5,0 °C 5,6 °C 77 % 1033,5 hPa 0,0 mm - 0,0 km/h 0,0 km/h SSW 0,0 W/qm 0,0 nein 22:45
22:50-0,7 °C 5,0 °C 5,6 °C 77 % 1033,6 hPa 0,0 mm - 0,0 km/h 0,0 km/h SSW 0,0 W/qm 0,0 nein 22:50
22:55-0,7 °C 5,0 °C 5,6 °C 77 % 1033,5 hPa 0,0 mm - 0,0 km/h 0,0 km/h SSW 0,0 W/qm 0,0 nein 22:55
23:00-0,8 °C 5,0 °C 5,6 °C 78 % 1033,5 hPa 0,0 mm - 0,0 km/h 0,0 km/h SSW 0,0 W/qm 0,0 nein 23:00
23:05-0,9 °C 5,0 °C 5,6 °C 78 % 1033,5 hPa 0,0 mm 2,6 mm 0,0 km/h 0,0 km/h SSW 0,0 W/qm 0,0 nein 23:05
23:10-0,9 °C 5,0 °C 5,6 °C 78 % 1033,5 hPa 0,0 mm 2,6 mm 0,0 km/h 0,0 km/h SSW 0,0 W/qm 0,0 nein 23:10
23:15-0,9 °C 5,0 °C 5,6 °C 78 % 1033,5 hPa 0,0 mm - 0,0 km/h 0,0 km/h SSW 0,0 W/qm 0,0 nein 23:15
23:20-1,0 °C 5,0 °C 5,6 °C 78 % 1033,5 hPa 0,0 mm - 0,0 km/h 0,0 km/h SSW 0,0 W/qm 0,0 nein 23:20
23:25-1,0 °C 5,0 °C 5,6 °C 79 % 1033,5 hPa 0,0 mm - 0,0 km/h 0,0 km/h SSW 0,0 W/qm 0,0 nein 23:25
23:30-1,3 °C 5,0 °C 5,6 °C 79 % 1033,6 hPa 0,0 mm - 0,0 km/h 0,0 km/h SSW 0,0 W/qm 0,0 nein 23:30
23:35-1,3 °C 5,0 °C 5,6 °C 80 % 1033,5 hPa 0,0 mm - 0,0 km/h 0,0 km/h SSW 0,0 W/qm 0,0 nein 23:35
23:40-1,2 °C 5,0 °C 5,6 °C 80 % 1033,4 hPa 0,0 mm - 0,0 km/h 0,0 km/h SSW 0,0 W/qm 0,0 nein 23:40
23:45-1,3 °C 5,0 °C 5,6 °C 80 % 1033,5 hPa 0,0 mm - 0,0 km/h 0,0 km/h SSW 0,0 W/qm 0,0 nein 23:45
23:50-1,3 °C 5,0 °C 5,6 °C 80 % 1033,5 hPa 0,0 mm - 0,0 km/h 0,0 km/h SSW 0,0 W/qm 0,0 nein 23:50
23:55-1,4 °C 5,0 °C 5,6 °C 80 % 1033,4 hPa 0,0 mm - 0,0 km/h 0,0 km/h SSW 0,0 W/qm 0,0 nein 23:55
Gesamt: 4,1 °C 4,7 °C 5,0 °C 62 % 1034,0 hPa 0,0 mm 54,5 mm 1,1 km/h 4,2 km/h 0 206,6 W/qm 0,5 ja

Insgesamt 287 Zeilen mal 13 Spalten = 3731 Werte werden angezeigt.

www.wetter-rosstal.de   •   www.wetter-franken.de   •   www.lightningmaps.org   •   Start   •   Kontakt / Datenschutz   •   PC-Kümmerer